Location: Fontevrault
(47.1823°N, 0.0493°E)
Time: 03:19:05
(UTC+00:00)

Cosmos 1459 Rocket - Pass Details

Date: 17 October 2021
Orbit: 936 x 1000 km, 83.0° (Epoch: 01 December)

Event Time Altitude Azimuth Distance (km) Brightness Sun altitude
Rises 05:31:43 0° 3° (N) 3,624 7.0 -9.1°
Reaches altitude 10° 05:35:34 10° 27° (NNE) 2,666 6.6 -8.5°
Maximum altitude 05:38:48 15° 60° (ENE) 2,336 6.9 -7.9°
Drops below altitude 10° 05:42:01 10° 92° (E) 2,651 8.1 -7.4°
Sets 05:45:48 0° 116° (ESE) 3,590 8.6 -6.7°
